Location: Camps Bay
(33.9517°S, 18.3844°E)
Time: 10:49:37
(UTC+00:00)

Cosmos 1697 Rocket - Pass Details

Date: 18 January 2020
Orbit: 833 x 843 km, 71.0° (Epoch: 18 February)

Event Time Altitude Azimuth Distance (km) Brightness Sun altitude
Rises 01:37:46 0° 197° (SSW) 3,427 6.3 -23.3°
Reaches altitude 10° 01:40:16 10° 193° (SSW) 2,484 5.6 -22.9°
Maximum altitude 01:45:55 61° 113° (ESE) 956 3.2 -22.1°
Drops below altitude 10° 01:51:28 10° 32° (NNE) 2,448 5.0 -21.3°
Sets 01:53:55 0° 29° (NNE) 3,374 5.7 -21.0°
